Location: Aranbee
(34.0885°N, 118.2342°W)
Time: 04:48:14
(UTC+00:00)

deb Explorer IX - Pass Details

Date: 26 November 2020
Orbit: 536 x 1104 km, 38.8° (Epoch: 17 January)

Event Time Altitude Azimuth Distance (km) Brightness Sun altitude
Rises 02:26:14 0° 261° (W) 3,351 ? -20.8°
Reaches altitude 10° 02:28:58 10° 265° (W) 2,319 ? -21.3°
Maximum altitude 02:34:17 61° 346° (NNW) 774 ? -22.4°
Enters shadow 02:35:06 53° 30° (NNE) 828 ? -22.6°
